Regional Weather Roundup
Issued by NWS Sioux Falls, SD

Home | Current Version | Previous Version | Text Only | Print | Product List | Glossary On
Versions: 1 2 3 4 5 6 7 8 9 10 11 12 13 14 15 16 17 18 19 20 21 22 23 24 25 26 27 28 29 30 31 32 33 34 35 36 37 38 39 40 41 42 43 44 45 46 47 48 49 50
000
ASUS43 KFSD 291410
RWRFSD

WEATHER ROUNDUP FOR SE SOUTH DAKOTA/SW MINNESOTA/NW IOWA
NATIONAL WEATHER SERVICE SIOUX FALLS SD
900 AM CDT TUE JUL 29 2014

NOTE: "FAIR" INDICATES FEW OR NO CLOUDS BELOW 12,000 FEET WITH NO
SIGNIFICANT WEATHER AND OR OBSTRUCTIONS TO VISIBILITY.


SDZ038>040-050-052>070-291500-
SOUTHEAST SOUTH DAKOTA

CITY           SKY/WX    TMP DP  RH WIND       PRES   REMARKS
CHAMBERLAIN    SUNNY     63  55  76 CALM      30.24S
HURON          CLOUDY    63  54  72 CALM      30.23S
MADISON        FAIR      61  59  94 CALM      30.24S
MITCHELL       MOSUNNY   63  56  78 CALM      30.24S
SIOUX FALLS    MOSUNNY   64  55  72 NW3       30.23S
WINNER         FAIR      65  54  67 CALM      30.24S
YANKTON        PTSUNNY   61  57  88 CALM      30.23F
$$

MNZ071-072-080-081-089-090-097-098-291500-
SOUTHWEST MINNESOTA

CITY           SKY/WX    TMP DP  RH WIND       PRES   REMARKS
FAIRMONT       SUNNY     64  54  68 NW7       30.19S
JACKSON        SUNNY     63  55  77 NW6       30.21R
LUVERNE        CLOUDY    61  54  77 NW5       30.23S
MARSHALL       SUNNY     63  54  72 NW8       30.20S
MONTEVIDEO     SUNNY     64  61  88 NW6       30.21R
PIPESTONE      SUNNY     63  54  72 N5        30.23S
REDWOOD FALLS  SUNNY     64  56  75 MISG      30.19S
TRACY          SUNNY     64  56  75 NW6       30.22R
WINDOM         SUNNY     64  55  72 NW6       30.21R
WORTHINGTON    SUNNY     63  55  77 N8        30.23R
$$

IAZ001>003-012>014-020>022-031-032-NEZ013-014-SDZ071-291500-
NORTHWEST IOWA

CITY           SKY/WX    TMP DP  RH WIND       PRES   REMARKS
CHEROKEE       SUNNY     62  58  86 N5        30.22S
DENISON        SUNNY     63  59  88 CALM      30.20S
ESTHERVILLE    SUNNY     63  56  78 NW7       30.19S
LE MARS        SUNNY     61  55  82 CALM      30.23S
ORANGE CITY    SUNNY     63  54  72 N5        30.22F
SHELDON        SUNNY     61  55  82 N5        30.21F
SIOUX CITY     MOSUNNY   66  57  72 NW5       30.22F
SPENCER        SUNNY     64  56  75 N7        30.21R
STORM LAKE     SUNNY     63  59  88 N6        30.22S
$$

ABBREVIATIONS USED IN REMARKS
   TC - TEMPERATURE IN CELSIUS
  WCI - WIND CHILL INDEX
   HX - HEAT INDEX
  VSB - VISIBILITY




USA.gov is the U.S. government's official web portal to all federal, state and local government web resources and services.